| time (UTC) | temp F | wind direction | speed MPH | gust MPH | rain 1hr in | rain 24hr in | rain mn in | humidity % | barometer mb |
| 20260510034628 | 63 | 230 | 1.0 | 5.0 | 0.00 | 0.65 | 0.52 | 72 | 1009.9 |
| 20260510034547 | 63 | 230 | 1.0 | 5.0 | 0.00 | 0.65 | 0.52 | 72 | 1009.9 |
| 20260510034024 | 63 | 231 | 1.0 | 5.0 | 0.00 | 0.65 | 0.52 | 72 | 1009.9 |
| 20260510033617 | 63 | 223 | 2.0 | 5.0 | 0.00 | 0.65 | 0.52 | 72 | 1010.0 |
| 20260510033113 | 63 | 238 | 2.0 | 4.0 | 0.00 | 0.65 | 0.52 | 72 | 1010.0 |
| 20260510032555 | 63 | 238 | 2.0 | 4.0 | 0.00 | 0.65 | 0.52 | 72 | 1010.0 |
| 20260510032020 | 63 | 240 | 2.0 | 3.0 | 0.00 | 0.65 | 0.52 | 72 | 1010.0 |
| 20260510031859 | 63 | 237 | 1.0 | 4.0 | 0.00 | 0.65 | 0.52 | 72 | 1009.9 |
| 20260510031056 | 63 | 228 | 1.0 | 4.0 | 0.00 | 0.65 | 0.52 | 72 | 1010.0 |
| 20260510030603 | 63 | 236 | 2.0 | 4.0 | 0.00 | 0.65 | 0.52 | 72 | 1009.9 |
| 20260510030111 | 63 | 210 | 2.0 | 4.0 | 0.00 | 0.65 | 0.52 | 71 | 1009.9 |
| 20260510025548 | 63 | 240 | 2.0 | 5.0 | 0.00 | 0.71 | 0.52 | 72 | 1009.9 |
| 20260510025141 | 63 | 247 | 2.0 | 5.0 | 0.00 | 0.71 | 0.52 | 72 | 1009.8 |
| 20260510024612 | 63 | 244 | 2.0 | 4.0 | 0.00 | 0.71 | 0.52 | 72 | 1009.8 |
| 20260510024024 | 63 | 253 | 2.0 | 4.0 | 0.00 | 0.71 | 0.52 | 72 | 1009.8 |
| 20260510023520 | 63 | 248 | 1.0 | 4.0 | 0.00 | 0.71 | 0.52 | 72 | 1009.6 |
| 20260510023039 | 63 | 231 | 1.0 | 4.0 | 0.00 | 0.71 | 0.52 | 72 | 1009.7 |
| 20260510022743 | 63 | 223 | 1.0 | 3.0 | 0.00 | 0.71 | 0.52 | 72 | 1009.7 |
| 20260510022307 | 64 | 215 | 0.0 | 3.0 | 0.00 | 0.71 | 0.52 | 72 | 1009.7 |
| 20260510021806 | 64 | 0 | 0.0 | 3.0 | 0.00 | 0.71 | 0.52 | 71 | 1009.6 |
| 20260510021054 | 64 | 244 | 0.0 | 3.0 | 0.00 | 0.71 | 0.52 | 71 | 1009.5 |
| 20260510020517 | 64 | 245 | 0.0 | 4.0 | 0.00 | 0.71 | 0.52 | 70 | 1009.6 |
| 20260510020057 | 64 | 246 | 1.0 | 4.0 | 0.00 | 0.71 | 0.52 | 70 | 1009.4 |
| 20260510015520 | 64 | 0 | 0.0 | 4.0 | 0.00 | 0.83 | 0.52 | 69 | 1009.4 |
| 20260510015028 | 65 | 248 | 2.0 | 5.0 | 0.00 | 0.83 | 0.52 | 69 | 1009.4 |
| 20260510014628 | 65 | 240 | 3.0 | 5.0 | 0.00 | 0.83 | 0.52 | 69 | 1009.3 |
| 20260510014019 | 65 | 252 | 2.0 | 5.0 | 0.00 | 0.83 | 0.52 | 69 | 1009.2 |
| 20260510013520 | 65 | 241 | 2.0 | 8.0 | 0.00 | 0.83 | 0.52 | 69 | 1009.1 |
| 20260510013042 | 65 | 250 | 3.0 | 8.0 | 0.00 | 0.83 | 0.52 | 68 | 1009.0 |
| 20260510012524 | 65 | 246 | 3.0 | 6.0 | 0.00 | 0.83 | 0.52 | 68 | 1009.0 |
| 20260510012038 | 65 | 242 | 3.0 | 6.0 | 0.00 | 0.83 | 0.52 | 68 | 1009.0 |
| 20260510011549 | 66 | 242 | 2.0 | 4.0 | 0.00 | 0.83 | 0.52 | 68 | 1008.8 |
| 20260510011424 | 66 | 253 | 2.0 | 4.0 | 0.00 | 0.83 | 0.52 | 69 | 1008.7 |
| 20260510010812 | 66 | 254 | 2.0 | 4.0 | 0.00 | 0.83 | 0.52 | 68 | 1008.6 |
| 20260510010718 | 66 | 254 | 2.0 | 4.0 | 0.00 | 0.83 | 0.52 | 68 | 1008.6 |
| 20260510010050 | 66 | 252 | 1.0 | 7.0 | 0.00 | 0.83 | 0.52 | 68 | 1008.6 |
| 20260510005711 | 67 | 250 | 2.0 | 7.0 | 0.00 | 0.91 | 0.52 | 67 | 1008.6 |
| 20260510005148 | 67 | 256 | 3.0 | 7.0 | 0.00 | 0.91 | 0.52 | 66 | 1008.6 |
| 20260510005038 | 67 | 256 | 3.0 | 7.0 | 0.00 | 0.91 | 0.52 | 66 | 1008.6 |
| 20260510004633 | 67 | 259 | 3.0 | 7.0 | 0.00 | 0.91 | 0.52 | 65 | 1008.5 |
| 20260510004058 | 67 | 249 | 3.0 | 9.0 | 0.00 | 0.91 | 0.52 | 64 | 1008.3 |
| 20260510003802 | 68 | 242 | 4.0 | 10.0 | 0.00 | 0.91 | 0.52 | 64 | 1008.2 |
| 20260510003212 | 68 | 238 | 4.0 | 10.0 | 0.00 | 0.91 | 0.52 | 64 | 1008.0 |
| 20260510002544 | 68 | 253 | 4.0 | 9.0 | 0.00 | 0.91 | 0.52 | 63 | 1008.0 |
| 20260510002028 | 68 | 248 | 5.0 | 10.0 | 0.00 | 0.91 | 0.52 | 63 | 1008.0 |
| 20260510001605 | 69 | 261 | 5.0 | 10.0 | 0.00 | 0.91 | 0.52 | 63 | 1008.0 |
| 20260510001459 | 69 | 259 | 5.0 | 11.0 | 0.00 | 0.91 | 0.52 | 62 | 1007.9 |
| 20260510001042 | 69 | 259 | 5.0 | 11.0 | 0.00 | 0.91 | 0.52 | 62 | 1007.9 |
| 20260510000550 | 69 | 264 | 5.0 | 12.0 | 0.00 | 0.91 | 0.52 | 61 | 1007.9 |
| 20260509235653 | 69 | 242 | 5.0 | 10.0 | 0.00 | 0.95 | 0.52 | 60 | 1007.8 |
| 20260509235119 | 70 | 244 | 5.0 | 11.0 | 0.00 | 0.95 | 0.52 | 59 | 1007.7 |
| 20260509234545 | 70 | 253 | 4.0 | 12.0 | 0.00 | 0.95 | 0.52 | 59 | 1007.6 |
| 20260509234135 | 70 | 308 | 5.0 | 12.0 | 0.00 | 0.95 | 0.52 | 63 | 1007.6 |
| 20260509234046 | 70 | 308 | 5.0 | 12.0 | 0.00 | 0.95 | 0.52 | 63 | 1007.6 |
| 20260509233527 | 70 | 257 | 4.0 | 8.0 | 0.00 | 0.95 | 0.52 | 58 | 1007.4 |
| 20260509233058 | 71 | 248 | 3.0 | 7.0 | 0.00 | 0.95 | 0.52 | 57 | 1007.5 |
| 20260509232610 | 71 | 252 | 3.0 | 9.0 | 0.00 | 0.95 | 0.52 | 58 | 1007.3 |
| 20260509232020 | 71 | 264 | 3.0 | 9.0 | 0.00 | 0.95 | 0.52 | 56 | 1007.4 |
| 20260509231543 | 71 | 254 | 4.0 | 9.0 | 0.00 | 0.95 | 0.52 | 55 | 1007.4 |
| 20260509231311 | 71 | 240 | 5.0 | 11.0 | 0.00 | 0.95 | 0.52 | 55 | 1007.3 |
| 20260509230615 | 72 | 256 | 5.0 | 13.0 | 0.00 | 0.95 | 0.52 | 56 | 1007.3 |
| 20260509230041 | 72 | 260 | 5.0 | 13.0 | 0.00 | 0.95 | 0.52 | 55 | 1007.2 |
| 20260509225549 | 72 | 273 | 5.0 | 13.0 | 0.00 | 0.95 | 0.52 | 53 | 1007.1 |
| 20260509225141 | 72 | 283 | 5.0 | 13.0 | 0.00 | 0.95 | 0.52 | 54 | 1007.1 |
| 20260509224114 | 72 | 239 | 6.0 | 12.0 | 0.00 | 0.95 | 0.52 | 53 | 1007.0 |
| 20260509223551 | 73 | 240 | 7.0 | 15.0 | 0.00 | 0.95 | 0.52 | 51 | 1007.0 |
| 20260509223217 | 73 | 240 | 6.0 | 15.0 | 0.00 | 0.95 | 0.52 | 57 | 1006.8 |
| 20260509222519 | 73 | 263 | 6.0 | 15.0 | 0.00 | 0.95 | 0.52 | 52 | 1006.9 |
| 20260509222139 | 73 | 250 | 7.0 | 15.0 | 0.00 | 0.95 | 0.52 | 51 | 1007.0 |
| 20260509221559 | 73 | 240 | 6.0 | 15.0 | 0.00 | 0.95 | 0.52 | 53 | 1006.9 |
| 20260509221313 | 74 | 236 | 6.0 | 16.0 | 0.00 | 0.95 | 0.52 | 52 | 1006.9 |
| 20260509221221 | 74 | 236 | 6.0 | 16.0 | 0.00 | 0.95 | 0.52 | 52 | 1006.9 |
| 20260509220910 | 74 | 244 | 8.0 | 16.0 | 0.00 | 0.95 | 0.52 | 49 | 1006.9 |
| 20260509220114 | 74 | 236 | 7.0 | 15.0 | 0.00 | 0.95 | 0.52 | 51 | 1007.0 |
| 20260509215544 | 74 | 206 | 7.0 | 15.0 | 0.00 | 0.95 | 0.52 | 51 | 1006.9 |
| 20260509215156 | 75 | 254 | 8.0 | 15.0 | 0.00 | 0.95 | 0.52 | 50 | 1006.9 |
| 20260509214628 | 75 | 236 | 7.0 | 17.0 | 0.00 | 0.95 | 0.52 | 52 | 1006.9 |
| 20260509214027 | 75 | 233 | 8.0 | 17.0 | 0.00 | 0.95 | 0.52 | 50 | 1007.0 |
| 20260509213520 | 75 | 225 | 5.0 | 16.0 | 0.00 | 0.95 | 0.52 | 49 | 1006.9 |
| 20260509213154 | 75 | 227 | 7.0 | 16.0 | 0.00 | 0.95 | 0.52 | 48 | 1007.0 |
| 20260509213057 | 75 | 227 | 7.0 | 16.0 | 0.00 | 0.95 | 0.52 | 48 | 1007.0 |
| 20260509212828 | 75 | 240 | 8.0 | 15.0 | 0.00 | 0.95 | 0.52 | 47 | 1006.9 |
| 20260509212020 | 76 | 270 | 8.0 | 15.0 | 0.00 | 0.95 | 0.52 | 50 | 1006.8 |
| 20260509211540 | 76 | 242 | 6.0 | 15.0 | 0.00 | 0.95 | 0.52 | 50 | 1006.9 |
| 20260509211058 | 76 | 244 | 5.0 | 13.0 | 0.00 | 0.95 | 0.52 | 48 | 1006.9 |
| 20260509210628 | 76 | 238 | 7.0 | 13.0 | 0.00 | 0.95 | 0.52 | 50 | 1006.9 |
| 20260509210110 | 75 | 219 | 3.0 | 13.0 | 0.00 | 0.95 | 0.52 | 54 | 1006.9 |
| 20260509205642 | 75 | 237 | 5.0 | 13.0 | 0.00 | 0.95 | 0.52 | 52 | 1006.9 |
| 20260509205531 | 75 | 237 | 5.0 | 13.0 | 0.00 | 0.95 | 0.52 | 52 | 1006.9 |
| 20260509205150 | 75 | 229 | 5.0 | 11.0 | 0.00 | 0.95 | 0.52 | 59 | 1006.9 |
| 20260509205039 | 75 | 229 | 5.0 | 11.0 | 0.00 | 0.95 | 0.52 | 59 | 1006.9 |
| 20260509204640 | 75 | 221 | 5.0 | 11.0 | 0.00 | 0.95 | 0.52 | 53 | 1007.0 |
| 20260509204054 | 75 | 252 | 6.0 | 14.0 | 0.00 | 0.95 | 0.52 | 55 | 1007.1 |
| 20260509203521 | 75 | 257 | 5.0 | 14.0 | 0.00 | 0.95 | 0.52 | 56 | 1007.1 |
| 20260509203034 | 75 | 198 | 6.0 | 15.0 | 0.00 | 0.95 | 0.52 | 56 | 1007.2 |
| 20260509202625 | 74 | 194 | 6.0 | 15.0 | 0.00 | 0.95 | 0.52 | 56 | 1007.1 |
| 20260509202020 | 74 | 213 | 5.0 | 16.0 | 0.00 | 0.95 | 0.52 | 56 | 1007.2 |
| 20260509201559 | 74 | 228 | 5.0 | 16.0 | 0.00 | 0.95 | 0.52 | 62 | 1007.3 |
| 20260509201048 | 74 | 258 | 4.0 | 13.0 | 0.00 | 0.95 | 0.52 | 64 | 1007.4 |
| 20260509200523 | 74 | 243 | 6.0 | 13.0 | 0.00 | 0.95 | 0.52 | 57 | 1007.4 |
| 20260509200145 | 74 | 196 | 4.0 | 10.0 | 0.00 | 0.95 | 0.52 | 56 | 1007.6 |
| 20260509195757 | 74 | 240 | 4.0 | 15.0 | 0.00 | 0.95 | 0.52 | 59 | 1007.7 |
| 20260509195630 | 74 | 240 | 4.0 | 15.0 | 0.00 | 0.95 | 0.52 | 59 | 1007.7 |
| 20260509195042 | 74 | 254 | 6.0 | 15.0 | 0.00 | 0.95 | 0.52 | 58 | 1007.7 |
| 20260509194558 | 73 | 244 | 6.0 | 14.0 | 0.00 | 0.95 | 0.52 | 59 | 1007.8 |
| 20260509194026 | 73 | 144 | 4.0 | 19.0 | 0.00 | 0.95 | 0.52 | 65 | 1007.8 |
| 20260509193540 | 72 | 238 | 6.0 | 19.0 | 0.00 | 0.95 | 0.52 | 61 | 1007.8 |
| 20260509193039 | 73 | 201 | 5.0 | 15.0 | 0.00 | 0.95 | 0.52 | 59 | 1007.8 |
| 20260509192519 | 73 | 155 | 5.0 | 15.0 | 0.00 | 0.95 | 0.52 | 62 | 1007.8 |
| 20260509192019 | 73 | 211 | 4.0 | 15.0 | 0.00 | 0.95 | 0.52 | 60 | 1007.7 |
| 20260509191553 | 73 | 200 | 4.0 | 10.0 | 0.00 | 0.95 | 0.52 | 66 | 1007.8 |
| 20260509191019 | 72 | 242 | 4.0 | 12.0 | 0.00 | 0.95 | 0.52 | 63 | 1007.8 |
| 20260509190524 | 72 | 255 | 5.0 | 12.0 | 0.00 | 0.95 | 0.52 | 64 | 1007.8 |
| 20260509190035 | 72 | 214 | 6.0 | 12.0 | 0.00 | 0.95 | 0.52 | 61 | 1007.8 |
| 20260509185520 | 72 | 227 | 5.0 | 11.0 | 0.00 | 0.95 | 0.52 | 62 | 1007.7 |
| 20260509185020 | 72 | 240 | 5.0 | 11.0 | 0.00 | 0.95 | 0.52 | 62 | 1007.9 |
| 20260509184549 | 71 | 196 | 4.0 | 11.0 | 0.00 | 0.95 | 0.52 | 68 | 1007.9 |
| 20260509184020 | 71 | 222 | 5.0 | 11.0 | 0.00 | 0.95 | 0.52 | 64 | 1007.9 |
| 20260509183519 | 71 | 260 | 4.0 | 11.0 | 0.00 | 0.95 | 0.52 | 63 | 1007.9 |
| 20260509183049 | 71 | 206 | 5.0 | 11.0 | 0.00 | 0.95 | 0.52 | 67 | 1008.0 |
| 20260509182519 | 71 | 242 | 3.0 | 11.0 | 0.00 | 0.95 | 0.52 | 65 | 1008.0 |
| 20260509182018 | 71 | 257 | 4.0 | 11.0 | 0.00 | 0.95 | 0.52 | 67 | 1008.0 |
| 20260509181538 | 70 | 246 | 5.0 | 12.0 | 0.00 | 0.95 | 0.52 | 66 | 1008.0 |
| 20260509181019 | 70 | 165 | 5.0 | 12.0 | 0.00 | 0.95 | 0.52 | 64 | 1008.0 |
| 20260509180519 | 70 | 250 | 5.0 | 12.0 | 0.00 | 0.95 | 0.52 | 65 | 1008.2 |
| 20260509180039 | 70 | 210 | 5.0 | 12.0 | 0.00 | 0.95 | 0.52 | 67 | 1008.0 |
| 20260509175521 | 70 | 238 | 5.0 | 12.0 | 0.00 | 0.95 | 0.52 | 67 | 1008.1 |
| 20260509175021 | 70 | 261 | 5.0 | 12.0 | 0.00 | 0.95 | 0.52 | 65 | 1008.2 |
| 20260509174538 | 70 | 236 | 6.0 | 12.0 | 0.00 | 0.95 | 0.52 | 69 | 1008.2 |
| 20260509174018 | 70 | 247 | 5.0 | 12.0 | 0.00 | 0.95 | 0.52 | 67 | 1008.2 |
| 20260509173522 | 70 | 221 | 3.0 | 12.0 | 0.00 | 0.95 | 0.52 | 69 | 1008.2 |
| 20260509173047 | 69 | 186 | 4.0 | 10.0 | 0.00 | 0.95 | 0.52 | 67 | 1008.3 |
| 20260509172519 | 69 | 239 | 5.0 | 11.0 | 0.00 | 0.95 | 0.52 | 67 | 1008.3 |
| 20260509172019 | 69 | 175 | 4.0 | 11.0 | 0.00 | 0.95 | 0.52 | 73 | 1008.4 |
| 20260509171539 | 69 | 232 | 4.0 | 11.0 | 0.00 | 0.95 | 0.52 | 67 | 1008.3 |
| 20260509171018 | 69 | 238 | 5.0 | 11.0 | 0.00 | 0.95 | 0.52 | 68 | 1008.2 |
| 20260509170518 | 69 | 242 | 6.0 | 11.0 | 0.00 | 0.95 | 0.52 | 68 | 1008.3 |
| 20260509170039 | 68 | 221 | 5.0 | 10.0 | 0.00 | 0.95 | 0.52 | 70 | 1008.5 |
| 20260509165518 | 68 | 250 | 5.0 | 10.0 | 0.00 | 0.95 | 0.52 | 70 | 1008.6 |
| 20260509165018 | 68 | 215 | 6.0 | 10.0 | 0.00 | 0.95 | 0.52 | 69 | 1008.5 |
| 20260509164538 | 68 | 233 | 5.0 | 15.0 | 0.00 | 0.95 | 0.52 | 74 | 1008.6 |
| 20260509164019 | 68 | 284 | 5.0 | 15.0 | 0.00 | 0.95 | 0.52 | 69 | 1008.5 |
| 20260509163518 | 68 | 244 | 6.0 | 10.0 | 0.00 | 0.95 | 0.52 | 70 | 1008.4 |
| 20260509163040 | 68 | 248 | 5.0 | 10.0 | 0.00 | 0.95 | 0.52 | 71 | 1008.4 |
| 20260509162521 | 68 | 205 | 3.0 | 10.0 | 0.00 | 0.95 | 0.52 | 70 | 1008.4 |
| 20260509162019 | 67 | 235 | 4.0 | 11.0 | 0.00 | 0.95 | 0.52 | 69 | 1008.4 |
| 20260509161532 | 67 | 241 | 6.0 | 11.0 | 0.00 | 0.95 | 0.52 | 76 | 1008.6 |
| 20260509161023 | 67 | 225 | 5.0 | 11.0 | 0.00 | 0.95 | 0.52 | 77 | 1008.4 |
| 20260509160521 | 67 | 242 | 4.0 | 12.0 | 0.00 | 0.95 | 0.52 | 70 | 1008.3 |
| 20260509160039 | 67 | 271 | 4.0 | 12.0 | 0.00 | 0.95 | 0.52 | 68 | 1008.3 |
| 20260509155521 | 67 | 250 | 5.0 | 12.0 | 0.00 | 0.95 | 0.52 | 71 | 1008.3 |
| 20260509155019 | 67 | 176 | 6.0 | 12.0 | 0.00 | 0.95 | 0.52 | 70 | 1008.3 |
| 20260509154538 | 66 | 241 | 4.0 | 10.0 | 0.00 | 0.95 | 0.52 | 70 | 1008.2 |
| 20260509154021 | 66 | 236 | 5.0 | 11.0 | 0.00 | 0.95 | 0.52 | 76 | 1008.2 |
| 20260509153518 | 66 | 249 | 6.0 | 11.0 | 0.00 | 0.95 | 0.52 | 71 | 1008.3 |
| 20260509153051 | 65 | 238 | 5.0 | 11.0 | 0.00 | 0.95 | 0.52 | 72 | 1008.3 |
| 20260509152521 | 65 | 222 | 6.0 | 11.0 | 0.00 | 0.95 | 0.52 | 74 | 1008.2 |
| 20260509152034 | 65 | 240 | 6.0 | 10.0 | 0.00 | 0.95 | 0.52 | 75 | 1008.3 |
| 20260509151538 | 64 | 200 | 4.0 | 11.0 | 0.00 | 0.95 | 0.52 | 77 | 1008.3 |
| 20260509151021 | 64 | 215 | 4.0 | 11.0 | 0.00 | 0.95 | 0.52 | 76 | 1008.3 |
| 20260509150523 | 64 | 153 | 6.0 | 11.0 | 0.00 | 0.95 | 0.52 | 74 | 1008.2 |
| 20260509150034 | 64 | 255 | 4.0 | 10.0 | 0.00 | 0.95 | 0.52 | 77 | 1008.3 |
| 20260509145519 | 64 | 255 | 2.0 | 9.0 | 0.00 | 0.95 | 0.52 | 77 | 1008.2 |
| 20260509145019 | 64 | 224 | 3.0 | 9.0 | 0.00 | 0.95 | 0.52 | 78 | 1008.2 |
| 20260509144540 | 63 | 219 | 3.0 | 9.0 | 0.00 | 0.95 | 0.52 | 77 | 1008.2 |
| 20260509144019 | 63 | 237 | 4.0 | 9.0 | 0.00 | 0.95 | 0.52 | 79 | 1008.2 |
| 20260509143518 | 62 | 238 | 3.0 | 8.0 | 0.00 | 0.95 | 0.52 | 79 | 1008.2 |
| 20260509143040 | 62 | 222 | 3.0 | 11.0 | 0.00 | 0.95 | 0.52 | 80 | 1008.2 |
| 20260509142523 | 61 | 243 | 3.0 | 11.0 | 0.00 | 0.95 | 0.52 | 81 | 1008.2 |
| 20260509142020 | 61 | 235 | 4.0 | 12.0 | 0.00 | 0.95 | 0.52 | 82 | 1008.1 |
| 20260509141539 | 60 | 243 | 3.0 | 12.0 | 0.00 | 0.95 | 0.52 | 84 | 1008.1 |
| 20260509141022 | 60 | 260 | 3.0 | 9.0 | 0.00 | 0.95 | 0.52 | 84 | 1008.1 |
| 20260509140520 | 59 | 223 | 3.0 | 8.0 | 0.00 | 0.95 | 0.52 | 85 | 1008.1 |
| 20260509140036 | 59 | 240 | 3.0 | 9.0 | 0.00 | 0.95 | 0.52 | 87 | 1008.1 |
| 20260509135521 | 59 | 263 | 3.0 | 9.0 | 0.00 | 0.95 | 0.52 | 88 | 1008.1 |
| 20260509135019 | 58 | 173 | 4.0 | 9.0 | 0.00 | 0.95 | 0.52 | 87 | 1008.0 |
| 20260509134540 | 58 | 243 | 3.0 | 7.0 | 0.00 | 0.95 | 0.52 | 88 | 1008.0 |
| 20260509134022 | 58 | 233 | 3.0 | 9.0 | 0.00 | 0.95 | 0.52 | 90 | 1008.1 |
| 20260509133519 | 57 | 184 | 3.0 | 10.0 | 0.00 | 0.95 | 0.52 | 91 | 1008.1 |
| 20260509133040 | 57 | 219 | 5.0 | 10.0 | 0.00 | 0.95 | 0.52 | 91 | 1008.1 |
| 20260509132521 | 57 | 207 | 3.0 | 8.0 | 0.00 | 0.95 | 0.52 | 92 | 1008.0 |
| 20260509132020 | 56 | 182 | 3.0 | 8.0 | 0.00 | 0.95 | 0.52 | 92 | 1008.1 |
| 20260509131538 | 56 | 190 | 4.0 | 9.0 | 0.00 | 0.95 | 0.52 | 92 | 1008.0 |
| 20260509131020 | 56 | 192 | 3.0 | 9.0 | 0.00 | 0.95 | 0.52 | 92 | 1007.9 |
| 20260509130518 | 56 | 208 | 3.0 | 6.0 | 0.00 | 0.95 | 0.52 | 92 | 1007.8 |
| 20260509130042 | 56 | 202 | 2.0 | 5.0 | 0.00 | 0.95 | 0.52 | 93 | 1007.9 |
| 20260509125520 | 55 | 194 | 3.0 | 7.0 | 0.00 | 0.95 | 0.52 | 93 | 1007.9 |
| 20260509125019 | 55 | 219 | 2.0 | 7.0 | 0.00 | 0.95 | 0.52 | 92 | 1007.9 |
| 20260509124548 | 55 | 188 | 3.0 | 7.0 | 0.00 | 0.95 | 0.52 | 93 | 1007.8 |
| 20260509124020 | 55 | 161 | 2.0 | 5.0 | 0.00 | 0.95 | 0.52 | 93 | 1007.8 |
| 20260509123521 | 55 | 146 | 1.0 | 5.0 | 0.00 | 0.95 | 0.52 | 93 | 1007.8 |
| 20260509123034 | 54 | 208 | 1.0 | 5.0 | 0.00 | 0.95 | 0.52 | 93 | 1008.0 |
| 20260509122519 | 54 | 0 | 1.0 | 5.0 | 0.00 | 0.95 | 0.52 | 93 | 1008.1 |
| 20260509122020 | 54 | 0 | 0.0 | 3.0 | 0.00 | 0.95 | 0.52 | 93 | 1008.1 |
| 20260509121539 | 54 | 0 | 1.0 | 3.0 | 0.00 | 0.95 | 0.52 | 93 | 1008.2 |
| 20260509121020 | 54 | 280 | 1.0 | 3.0 | 0.00 | 0.95 | 0.52 | 93 | 1008.2 |
| 20260509120521 | 54 | 0 | 1.0 | 4.0 | 0.00 | 0.95 | 0.52 | 93 | 1008.2 |
| 20260509120040 | 54 | 279 | 0.0 | 4.0 | 0.00 | 0.95 | 0.52 | 93 | 1008.2 |
| 20260509115518 | 54 | 277 | 1.0 | 4.0 | 0.00 | 0.95 | 0.52 | 93 | 1008.1 |
| 20260509115018 | 53 | 259 | 1.0 | 3.0 | 0.00 | 0.95 | 0.52 | 93 | 1007.9 |
| 20260509114542 | 53 | 248 | 1.0 | 3.0 | 0.00 | 0.95 | 0.52 | 93 | 1007.9 |
| 20260509114019 | 53 | 178 | 0.0 | 3.0 | 0.00 | 0.95 | 0.52 | 93 | 1007.6 |
| 20260509113518 | 53 | 176 | 1.0 | 3.0 | 0.00 | 0.95 | 0.52 | 93 | 1007.6 |
| 20260509113039 | 53 | 174 | 1.0 | 3.0 | 0.00 | 0.95 | 0.52 | 92 | 1007.4 |
| 20260509112518 | 53 | 175 | 1.0 | 4.0 | 0.00 | 0.95 | 0.52 | 92 | 1007.3 |
| 20260509112021 | 53 | 180 | 1.0 | 4.0 | 0.00 | 0.95 | 0.52 | 92 | 1007.3 |
| 20260509111535 | 53 | 180 | 1.0 | 4.0 | 0.00 | 0.95 | 0.52 | 92 | 1007.4 |
| 20260509111021 | 53 | 178 | 0.0 | 3.0 | 0.00 | 0.95 | 0.52 | 92 | 1007.3 |
| 20260509110519 | 53 | 178 | 1.0 | 3.0 | 0.00 | 0.95 | 0.52 | 92 | 1007.3 |
| 20260509110041 | 53 | 181 | 1.0 | 3.0 | 0.00 | 0.95 | 0.52 | 92 | 1007.2 |
| 20260509105520 | 53 | 180 | 1.0 | 3.0 | 0.01 | 0.95 | 0.52 | 92 | 1007.2 |
| 20260509105018 | 53 | 180 | 0.0 | 3.0 | 0.01 | 0.95 | 0.52 | 92 | 1007.1 |
| 20260509104540 | 53 | 180 | 1.0 | 5.0 | 0.01 | 0.95 | 0.52 | 92 | 1007.1 |
| 20260509104020 | 53 | 0 | 1.0 | 6.0 | 0.02 | 0.95 | 0.52 | 92 | 1007.0 |
| 20260509103520 | 53 | 202 | 2.0 | 7.0 | 0.03 | 0.95 | 0.52 | 92 | 1007.0 |
| 20260509103045 | 53 | 157 | 2.0 | 9.0 | 0.03 | 0.95 | 0.52 | 92 | 1006.9 |
| 20260509102521 | 53 | 193 | 3.0 | 9.0 | 0.04 | 0.95 | 0.52 | 92 | 1006.9 |
| 20260509102020 | 53 | 169 | 3.0 | 11.0 | 0.04 | 0.95 | 0.52 | 92 | 1006.9 |
| 20260509101556 | 53 | 188 | 4.0 | 11.0 | 0.04 | 0.95 | 0.52 | 92 | 1006.8 |
| 20260509101019 | 53 | 157 | 4.0 | 11.0 | 0.04 | 0.95 | 0.52 | 92 | 1007.0 |
| 20260509100520 | 53 | 163 | 5.0 | 11.0 | 0.04 | 0.95 | 0.52 | 92 | 1007.1 |
| 20260509100034 | 53 | 158 | 2.0 | 7.0 | 0.04 | 0.95 | 0.52 | 92 | 1007.3 |
| 20260509095521 | 53 | 165 | 2.0 | 7.0 | 0.03 | 0.94 | 0.51 | 92 | 1007.7 |
| 20260509095020 | 53 | 205 | 2.0 | 6.0 | 0.04 | 0.94 | 0.51 | 92 | 1007.8 |
| 20260509094533 | 53 | 202 | 1.0 | 6.0 | 0.03 | 0.93 | 0.50 | 92 | 1007.9 |
| 20260509094020 | 53 | 217 | 1.0 | 5.0 | 0.03 | 0.93 | 0.50 | 92 | 1008.0 |
| 20260509093520 | 53 | 209 | 1.0 | 5.0 | 0.03 | 0.92 | 0.49 | 92 | 1008.0 |
| 20260509093041 | 53 | 254 | 1.0 | 5.0 | 0.03 | 0.92 | 0.49 | 92 | 1008.0 |
| 20260509092520 | 53 | 208 | 1.0 | 5.0 | 0.02 | 0.91 | 0.48 | 92 | 1008.0 |
| 20260509092020 | 53 | 204 | 1.0 | 9.0 | 0.03 | 0.91 | 0.48 | 92 | 1008.0 |
| 20260509091542 | 54 | 211 | 3.0 | 9.0 | 0.03 | 0.91 | 0.48 | 92 | 1008.0 |
| 20260509091020 | 54 | 196 | 2.0 | 5.0 | 0.04 | 0.91 | 0.48 | 92 | 1007.9 |
| 20260509090522 | 54 | 242 | 2.0 | 5.0 | 0.04 | 0.91 | 0.48 | 92 | 1008.0 |
| 20260509090047 | 54 | 248 | 2.0 | 5.0 | 0.04 | 0.91 | 0.48 | 92 | 1008.0 |
| 20260509085520 | 54 | 225 | 2.0 | 6.0 | 0.04 | 0.91 | 0.48 | 92 | 1007.9 |
| 20260509085020 | 54 | 250 | 2.0 | 6.0 | 0.03 | 0.90 | 0.47 | 92 | 1007.9 |
| 20260509084535 | 54 | 242 | 2.0 | 6.0 | 0.04 | 0.90 | 0.47 | 92 | 1007.9 |
| 20260509084018 | 54 | 264 | 2.0 | 6.0 | 0.04 | 0.90 | 0.47 | 92 | 1007.9 |
| 20260509083518 | 54 | 238 | 2.0 | 7.0 | 0.03 | 0.89 | 0.46 | 92 | 1007.7 |
| 20260509083052 | 54 | 252 | 2.0 | 7.0 | 0.03 | 0.89 | 0.46 | 92 | 1007.8 |
| 20260509082523 | 54 | 223 | 3.0 | 6.0 | 0.04 | 0.89 | 0.46 | 92 | 1008.0 |
| 20260509082022 | 54 | 244 | 2.0 | 6.0 | 0.03 | 0.88 | 0.45 | 92 | 1007.9 |
| 20260509081540 | 54 | 239 | 3.0 | 6.0 | 0.04 | 0.88 | 0.45 | 92 | 1007.9 |
| 20260509081019 | 54 | 222 | 2.0 | 5.0 | 0.03 | 0.87 | 0.44 | 92 | 1008.0 |
| 20260509080520 | 54 | 238 | 2.0 | 8.0 | 0.04 | 0.87 | 0.44 | 92 | 1007.9 |
| 20260509080042 | 54 | 227 | 2.0 | 8.0 | 0.04 | 0.87 | 0.44 | 92 | 1008.0 |
| 20260509075522 | 54 | 199 | 2.0 | 7.0 | 0.04 | 0.87 | 0.44 | 92 | 1008.0 |
| 20260509075024 | 54 | 238 | 2.0 | 6.0 | 0.04 | 0.87 | 0.44 | 92 | 1008.1 |
| 20260509074544 | 54 | 235 | 2.0 | 6.0 | 0.04 | 0.86 | 0.43 | 92 | 1008.2 |
| 20260509074019 | 54 | 245 | 3.0 | 8.0 | 0.04 | 0.86 | 0.43 | 92 | 1008.2 |
| 20260509073519 | 54 | 238 | 2.0 | 8.0 | 0.05 | 0.86 | 0.43 | 92 | 1008.2 |
| 20260509073037 | 54 | 198 | 2.0 | 7.0 | 0.06 | 0.86 | 0.43 | 92 | 1008.3 |
| 20260509072518 | 54 | 261 | 1.0 | 5.0 | 0.06 | 0.85 | 0.42 | 92 | 1008.3 |
| 20260509072018 | 54 | 209 | 2.0 | 7.0 | 0.07 | 0.85 | 0.42 | 92 | 1008.4 |
| 20260509071545 | 54 | 236 | 3.0 | 7.0 | 0.08 | 0.84 | 0.41 | 92 | 1008.4 |
| 20260509071020 | 54 | 266 | 2.0 | 5.0 | 0.09 | 0.84 | 0.41 | 92 | 1008.5 |
| 20260509070524 | 54 | 250 | 1.0 | 3.0 | 0.09 | 0.83 | 0.40 | 92 | 1008.4 |
| 20260509070042 | 54 | 248 | 1.0 | 4.0 | 0.11 | 0.83 | 0.40 | 92 | 1008.5 |
| 20260509065521 | 54 | 250 | 1.0 | 4.0 | 0.13 | 0.83 | 0.40 | 92 | 1008.5 |
| 20260509065020 | 54 | 251 | 2.0 | 4.0 | 0.13 | 0.83 | 0.40 | 92 | 1008.5 |
| 20260509064539 | 54 | 246 | 1.0 | 4.0 | 0.14 | 0.82 | 0.39 | 92 | 1008.6 |
| 20260509064020 | 54 | 252 | 1.0 | 5.0 | 0.14 | 0.82 | 0.39 | 92 | 1008.8 |
| 20260509063519 | 54 | 251 | 2.0 | 6.0 | 0.13 | 0.80 | 0.37 | 92 | 1009.0 |
| 20260509063038 | 54 | 240 | 2.0 | 6.0 | 0.13 | 0.79 | 0.36 | 92 | 1009.1 |
| 20260509062519 | 54 | 238 | 2.0 | 4.0 | 0.13 | 0.78 | 0.35 | 92 | 1009.2 |
| 20260509062020 | 54 | 248 | 0.0 | 3.0 | 0.13 | 0.77 | 0.34 | 92 | 1009.3 |
| 20260509061537 | 54 | 248 | 1.0 | 3.0 | 0.13 | 0.76 | 0.33 | 92 | 1009.3 |
| 20260509061024 | 54 | 248 | 1.0 | 4.0 | 0.13 | 0.75 | 0.32 | 92 | 1009.4 |
| 20260509060521 | 54 | 250 | 1.0 | 4.0 | 0.13 | 0.74 | 0.31 | 92 | 1009.5 |
| 20260509060049 | 54 | 240 | 2.0 | 4.0 | 0.12 | 0.72 | 0.29 | 92 | 1009.6 |
| 20260509055521 | 54 | 245 | 2.0 | 4.0 | 0.12 | 0.70 | 0.27 | 92 | 1009.6 |
| 20260509055021 | 54 | 238 | 1.0 | 3.0 | 0.12 | 0.69 | 0.26 | 92 | 1009.6 |
| 20260509054541 | 54 | 237 | 1.0 | 3.0 | 0.12 | 0.68 | 0.25 | 92 | 1009.5 |
| 20260509054020 | 54 | 236 | 0.0 | 3.0 | 0.14 | 0.68 | 0.25 | 92 | 1009.4 |
| 20260509053520 | 54 | 0 | 0.0 | 3.0 | 0.15 | 0.67 | 0.24 | 92 | 1009.4 |
| 20260509053101 | 54 | 236 | 1.0 | 3.0 | 0.15 | 0.66 | 0.23 | 92 | 1009.6 |
| 20260509052522 | 54 | 210 | 1.0 | 3.0 | 0.15 | 0.65 | 0.22 | 92 | 1009.7 |
| 20260509052019 | 54 | 0 | 1.0 | 3.0 | 0.16 | 0.64 | 0.21 | 92 | 1009.6 |
| 20260509051544 | 54 | 208 | 1.0 | 3.0 | 0.16 | 0.63 | 0.20 | 91 | 1009.7 |
| 20260509051020 | 54 | 207 | 1.0 | 3.0 | 0.16 | 0.62 | 0.19 | 91 | 1009.7 |
| 20260509050521 | 54 | 202 | 0.0 | 3.0 | 0.16 | 0.61 | 0.18 | 91 | 1009.5 |
| 20260509050035 | 54 | 0 | 0.0 | 3.0 | 0.16 | 0.60 | 0.17 | 91 | 1009.4 |
| 20260509045528 | 54 | 0 | 1.0 | 3.0 | 0.15 | 0.58 | 0.15 | 91 | 1009.5 |
| 20260509045021 | 54 | 0 | 1.0 | 4.0 | 0.16 | 0.57 | 0.14 | 91 | 1009.5 |
| 20260509044533 | 54 | 169 | 1.0 | 4.0 | 0.15 | 0.55 | 0.12 | 91 | 1009.6 |
| 20260509044019 | 54 | 193 | 1.0 | 4.0 | 0.15 | 0.54 | 0.11 | 91 | 1009.6 |
| 20260509043519 | 54 | 195 | 2.0 | 4.0 | 0.14 | 0.52 | 0.09 | 91 | 1009.6 |
| 20260509043051 | 54 | 0 | 1.0 | 5.0 | 0.14 | 0.51 | 0.08 | 91 | 1009.7 |
| 20260509042521 | 54 | 198 | 2.0 | 5.0 | 0.13 | 0.49 | 0.06 | 91 | 1009.7 |
| 20260509042021 | 54 | 183 | 2.0 | 4.0 | 0.13 | 0.48 | 0.05 | 91 | 1009.7 |
| 20260509041539 | 54 | 227 | 1.0 | 4.0 | 0.14 | 0.47 | 0.04 | 91 | 1009.7 |
| 20260509041021 | 54 | 213 | 2.0 | 4.0 | 0.14 | 0.46 | 0.03 | 91 | 1009.7 |
| 20260509040523 | 54 | 207 | 1.0 | 4.0 | 0.14 | 0.45 | 0.02 | 91 | 1009.9 |
| 20260509040042 | 54 | 213 | 1.0 | 4.0 | 0.14 | 0.44 | 0.01 | 91 | 1009.8 |
| 20260509035519 | 54 | 219 | 1.0 | 4.0 | 0.13 | 0.42 | 0.42 | 91 | 1009.9 |
| 20260509035021 | 54 | 246 | 1.0 | 3.0 | 0.12 | 0.41 | 0.41 | 91 | 1010.0 |